星链-2562 (STARLINK-2562 )

导读 | 豆包AI

STARLINK-2562是美国太空探索技术公司Starlink星座的成员,于2021年4月29日发射入轨,属于美国星链互联网卫星项目,该项目旨在为全球提供高速低延迟的卫星互联网服务。作为部署批次中的一颗卫星,它承担着扩展星座覆盖范围、提升全球网络接入能力的任务,推进了星链星座的全球组网进程。

基本信息
目录编号:
48288
目录名称:
STARLINK-2562
国际标识:
2021-036N
轨道中心:
EARTH
卫星名称:
星链-2562
卫星全名:
星链-2562 (STARLINK-2562 )
卫星状态:
已陨落 最后检测时间 2025-09-29
发射日期:
2021-04-29 UTC
国别 :
美国 (US)
星等 :
--
轨道信息
数据来源 国际轨道数据
星历时间: 2025-09-29T23:38:24+0800
轨道信息已过期212天
半长轴: 6546.092km
偏心率: 0.0007551
轨道倾角: 53.028°
近地点辐角 303.092°
升交点赤经 43.260°
平近点角 56.940°
近地点: 163.014km
远地点: 172.9km
周期: 87.848分钟
每日圈数: 16.391913
详细信息
固有亮度:
5
最大亮度:
2.5
卫星平台:
Starlink V1.0
覆盖范围:
全球
运营商:
太空探索技术公司
运营商所在国:
美国
制造商(研发单位):
太空探索技术公司
制造商所在国:
美国
使用方式:
暂无
卫星简介
星链(Starlink)计划是由太空探索技术公司(SpaceX)提出的一个巨型低轨卫星互联网星座项目,计划在2019年至2024年间在太空搭建由约1.2万颗卫星组成的“星链”网络,其中1584颗将部署在地球上空550千米处的近地轨道,并从2020年开始工作。该卫星仍在工作。